Coolangatta Observation History
Time Wind Speed Temp Pressure Rel. Hum Rain
18/09:00pm ENE 9-12 kts 21.3°c 1021.0 hPa 75% 0.0mm
18/08:30pm ENE 8-11 kts 21.2°c 1020.9 hPa 77% 0.0mm
18/08:00pm ENE 8-11 kts 20.9°c 1020.6 hPa 78% 0.0mm
18/07:30pm ENE 8-9 kts 21.4°c 1020.4 hPa 76% 0.0mm
18/07:00pm ENE 8-10 kts 21.3°c 1020.1 hPa 76% 0.0mm
18/06:30pm ENE 9-11 kts 21.3°c 1019.4 hPa 76% 0.0mm
18/06:00pm ENE 9-13 kts 21.5°c 1019.0 hPa 77% 0.0mm
18/05:30pm ENE 10-13 kts 21.7°c 1018.6 hPa 75% 0.0mm
18/05:00pm ENE 10-12 kts 22.0°c 1018.4 hPa 74% 0.0mm
18/04:30pm ENE 10-13 kts 22.5°c 1018.1 hPa 75% 0.0mm
18/04:00pm ENE 12-15 kts 22.2°c 1017.9 hPa 75% 0.0mm
18/03:30pm ENE 13-16 kts 22.7°c 1017.7 hPa 73% 0.0mm
18/03:00pm ENE 13-17 kts 22.9°c 1017.5 hPa 70% 0.0mm
18/02:30pm ENE 12-16 kts 23.6°c 1017.6 hPa 73% 0.0mm
18/02:00pm ENE 13-16 kts 23.2°c 1017.8 hPa 73% 0.0mm
18/01:30pm ENE 13-16 kts 24.2°c 1018.1 hPa 71% 0.0mm
18/01:00pm E 12-15 kts 23.1°c 1018.5 hPa 73% 0.0mm
18/12:30pm ENE 13-16 kts 22.6°c 1018.7 hPa 74% 0.0mm
18/12:00pm ENE 14-17 kts 23.1°c 1019.0 hPa 73% 0.0mm
18/11:30am ENE 13-16 kts 22.9°c 1019.1 hPa 76% 0.0mm
18/11:00am ENE 12-15 kts 23.1°c 1019.3 hPa 75% 0.0mm
18/10:30am ENE 12-15 kts 23.6°c 1019.5 hPa 73% 0.0mm
18/10:00am NE 11-14 kts 22.6°c 1019.6 hPa 76% 0.0mm
18/09:30am NE 10-14 kts 22.8°c 1019.6 hPa 77% 0.0mm
18/09:00am NE 10-12 kts 22.2°c 1019.5 hPa 81% 2.4mm
18/08:30am ENE 11-14 kts 21.3°c 1019.4 hPa 88% 2.4mm
18/08:21am ENE 12-14 kts 21.5°c 1019.3 hPa 88% 2.4mm
18/08:01am ENE 12-15 kts 21.4°c 1019.2 hPa 85% 1.8mm
18/08:00am ENE 12-15 kts 21.4°c 1019.2 hPa 84% 1.8mm
18/07:30am ENE 9-13 kts 22.0°c 1019.1 hPa 80% 1.6mm
18/07:00am ENE 10-13 kts 21.7°c 1018.9 hPa 81% 1.6mm
18/06:30am ENE 10-13 kts 21.4°c 1018.5 hPa 84% 1.6mm
18/06:00am NE 10-14 kts 21.3°c 1018.3 hPa 83% 1.6mm
18/05:30am NE 10-14 kts 21.1°c 1017.8 hPa 82% 1.6mm
18/05:00am NE 11-15 kts 21.0°c 1017.6 hPa 83% 1.6mm
18/04:30am NE 11-14 kts 20.9°c 1017.2 hPa 85% 1.6mm
18/04:00am NE 10-15 kts 20.8°c 1016.9 hPa 86% 1.6mm
18/03:30am NE 11-15 kts 20.6°c 1016.5 hPa 90% 1.6mm
18/03:00am NE 11-14 kts 20.9°c 1016.4 hPa 85% 1.6mm
18/02:38am NE 12-16 kts 20.8°c 1016.4 hPa 86% 1.4mm
18/02:30am NE 12-16 kts 20.6°c 1016.5 hPa 86% 1.4mm
18/02:15am NE 9-12 kts 20.7°c 1016.6 hPa 93% 1.4mm
18/02:13am NNE 9-12 kts 20.7°c 1016.6 hPa 93% 1.4mm
18/02:00am NE 12-15 kts 20.2°c 1016.5 hPa 93% 1.4mm
18/01:58am NE 12-15 kts 20.1°c 1016.6 hPa 92% 1.4mm
18/01:36am ENE 13-17 kts 20.3°c 1016.7 hPa 93% 1.0mm
18/01:30am ENE 14-20 kts 20.1°c 1016.8 hPa 93% 1.0mm
18/01:00am ENE 9-14 kts 20.5°c 1017.1 hPa 93% 1.0mm
18/12:53am E 8-11 kts 20.2°c 1017.2 hPa 94% 1.0mm
18/12:40am E 10-15 kts 20.0°c 1017.3 hPa 94% 1.0mm
18/12:30am ENE 12-16 kts 20.0°c 1017.5 hPa 93% 0.2mm
18/12:29am ENE 11-16 kts 20.1°c 1017.5 hPa 93% 0.2mm
18/12:23am ENE 12-17 kts 20.3°c 1017.5 hPa 93% 0.2mm
18/12:12am ENE 12-16 kts 20.2°c 1017.5 hPa 91% 0.2mm
18/12:00am E 9-13 kts 20.6°c 1017.6 hPa 89% 0.2mm
Time Wind Speed Temp Pressure Rel. Hum Rain
17/11:52pm E 11-16 kts 20.5°c 1017.6 hPa 89% 0.2mm
17/11:30pm E 11-14 kts 20.8°c 1017.7 hPa 87% 0.2mm
17/11:14pm E 10-13 kts 20.7°c 1018.0 hPa 86% 0.2mm
17/11:10pm E 11-14 kts 20.7°c 1018.0 hPa 87% 0.2mm
17/11:00pm E 11-14 kts 20.8°c 1018.0 hPa 87% 0.2mm
17/10:48pm E 10-13 kts 20.8°c 1018.0 hPa 87% 0.2mm
17/10:30pm E 10-14 kts 20.8°c 1017.9 hPa 87% 0.2mm
17/10:00pm ESE 10-14 kts 20.7°c 1017.8 hPa 86% 0.2mm
17/09:39pm E 9-12 kts 20.8°c 1017.9 hPa 87% 0.2mm
17/09:30pm E 8-12 kts 20.7°c 1017.8 hPa 90% 0.2mm
17/09:27pm E 8-9 kts 20.8°c 1017.7 hPa 90% 0.2mm
17/09:00pm SSE 5-8 kts 20.5°c 1017.8 hPa 89% 0.2mm
17/08:30pm ESE 7-9 kts 21.1°c 1017.6 hPa 84% 0.2mm
17/08:00pm ESE 7-10 kts 21.1°c 1017.5 hPa 82% 0.2mm
17/07:30pm ESE 7-10 kts 21.2°c 1017.1 hPa 82% 0.2mm
17/07:00pm ESE 7-9 kts 21.4°c 1016.8 hPa 82% 0.2mm
17/06:30pm E 7-9 kts 21.2°c 1016.6 hPa 83% 0.2mm
17/06:10pm E 7-10 kts 21.3°c 1016.5 hPa 83% 0.2mm
17/06:00pm ESE 9-12 kts 21.4°c 1016.4 hPa 83% 0.2mm
17/05:34pm E 9-11 kts 21.6°c 1016.2 hPa 82% 0.2mm
17/05:30pm E 10-12 kts 21.7°c 1016.1 hPa 83% 0.2mm
17/05:00pm E 10-13 kts 21.9°c 1016.0 hPa 79% 0.2mm
17/04:30pm E 11-15 kts 22.3°c 1015.8 hPa 76% 0.2mm
17/04:00pm E 9-11 kts 22.4°c 1015.8 hPa 77% 0.2mm
17/03:30pm E 11-15 kts 22.3°c 1015.7 hPa 78% 0.2mm
17/03:00pm ENE 10-12 kts 22.9°c 1015.7 hPa 73% 0.2mm
17/02:30pm ENE 9-12 kts 23.9°c 1015.8 hPa 72% 0.2mm
17/02:00pm NE 11-14 kts 23.2°c 1016.1 hPa 72% 0.2mm
17/01:30pm NE 11-13 kts 23.3°c 1016.2 hPa 74% 0.2mm
17/01:00pm E 8-12 kts 23.6°c 1016.8 hPa 73% 0.2mm
17/12:30pm E 9-11 kts 23.3°c 1017.0 hPa 73% 0.2mm
17/12:00pm E 10-13 kts 24.3°c 1017.1 hPa 70% 0.2mm
17/11:30am E 8-12 kts 23.4°c 1017.5 hPa 69% 0.2mm
17/11:00am ESE 10-13 kts 23.1°c 1017.8 hPa 72% 0.2mm
17/10:50am E 8-12 kts 23.5°c 1017.9 hPa 74% 0.2mm
17/10:35am ESE 9-11 kts 22.3°c 1018.1 hPa 84% 0.2mm
17/10:30am ESE 10-13 kts 22.6°c 1018.1 hPa 79% 0.2mm
17/10:00am E 11-14 kts 22.7°c 1018.4 hPa 76% 0.0mm
17/09:30am ESE 9-13 kts 23.0°c 1018.6 hPa 74% 0.0mm
17/09:00am ESE 8-12 kts 22.8°c 1018.5 hPa 77% 0.8mm
17/08:30am ESE 8-11 kts 21.9°c 1018.5 hPa 84% 0.8mm
17/08:28am ESE 7-10 kts 21.9°c 1018.5 hPa 84% 0.8mm
17/08:18am SSE 4-7 kts 21.1°c 1018.6 hPa 89% 0.8mm
17/08:00am S 4-6 kts 21.0°c 1018.6 hPa 88% 0.8mm
17/07:30am SSW 4-6 kts 20.6°c 1018.6 hPa 90% 0.8mm
17/07:00am S 5-6 kts 20.4°c 1018.1 hPa 93% 0.8mm
17/06:30am S 5-6 kts 19.8°c 1017.9 hPa 95% 0.8mm
17/06:20am S 4-5 kts 19.8°c 1017.8 hPa 96% 0.8mm
17/06:04am SSW 3-4 kts 19.5°c 1017.7 hPa 97% 0.8mm
17/06:00am SSW 3-4 kts 19.4°c 1017.6 hPa 97% 0.8mm
17/05:30am SSW 4-5 kts 18.9°c 1017.4 hPa 97% 0.6mm
17/05:00am S 5-6 kts 18.8°c 1017.0 hPa 96% 0.6mm
17/04:53am SSE 5-6 kts 18.9°c 1017.0 hPa 96% 0.6mm
17/04:42am S 5-6 kts 19.2°c 1016.9 hPa 97% 0.6mm
17/04:30am SSW 4-6 kts 19.2°c 1016.8 hPa 97% 0.6mm
17/04:00am SSW 4-5 kts 19.1°c 1016.5 hPa 96% 0.6mm
17/03:30am S 3-6 kts 19.0°c 1016.5 hPa 95% 0.6mm
17/03:25am S 3-4 kts 19.1°c 1016.5 hPa 95% 0.6mm
17/03:02am S 2-4 kts 19.5°c 1016.7 hPa 95% 0.6mm
17/03:00am S 3-4 kts 19.5°c 1016.7 hPa 95% 0.6mm
17/02:30am SSE 3-5 kts 19.2°c 1016.8 hPa 93% 0.4mm
17/02:19am SSE 3-5 kts 19.7°c 1017.0 hPa 92% 0.4mm
17/02:04am ESE 6-11 kts 20.1°c 1017.0 hPa 90% 0.4mm
17/02:00am ESE 5-11 kts 20.4°c 1017.1 hPa 89% 0.4mm
17/01:30am ESE 3-5 kts 20.0°c 1017.1 hPa 88% 0.2mm
17/01:15am E 5-7 kts 20.4°c 1017.2 hPa 87% 0.2mm
17/01:00am E 6-8 kts 20.4°c 1017.2 hPa 88% 0.2mm
17/12:47am E 5-7 kts 20.6°c 1017.1 hPa 87% 0.2mm
17/12:30am E 7-9 kts 20.5°c 1017.0 hPa 87% 0.2mm
17/12:00am E 9-12 kts 20.7°c 1017.2 hPa 87% 0.2mm
Time Wind Speed Temp Pressure Rel. Hum Rain
16/11:30pm E 8-11 kts 20.8°c 1017.6 hPa 87% 0.2mm
16/11:00pm E 9-13 kts 20.5°c 1017.8 hPa 87% 0.2mm
16/10:58pm E 9-13 kts 20.6°c 1017.8 hPa 87% 0.2mm
16/10:42pm E 7-10 kts 20.8°c 1017.9 hPa 86% 0.2mm
16/10:34pm E 8-11 kts 20.8°c 1018.0 hPa 86% 0.2mm
16/10:30pm E 8-10 kts 20.8°c 1018.0 hPa 87% 0.2mm
16/10:16pm E 7-11 kts 20.8°c 1018.1 hPa 87% 0.2mm
16/10:15pm E 8-11 kts 20.8°c 1018.1 hPa 87% 0.2mm
16/10:00pm E 6-8 kts 20.9°c 1018.3 hPa 88% 0.2mm
16/09:57pm E 6-9 kts 20.9°c 1018.3 hPa 88% 0.2mm
16/09:30pm E 7-10 kts 20.9°c 1018.5 hPa 87% 0.2mm
16/09:11pm E 7-10 kts 21.0°c 1018.5 hPa 88% 0.2mm
16/09:00pm E 7-9 kts 21.0°c 1018.4 hPa 88% 0.2mm
16/08:43pm ESE 6-8 kts 20.8°c 1018.4 hPa 89% 0.2mm
16/08:30pm ESE 8-11 kts 20.9°c 1018.4 hPa 88% 0.2mm
16/08:00pm ESE 8-11 kts 20.9°c 1018.3 hPa 88% 0.2mm
16/07:30pm ESE 8-11 kts 21.1°c 1018.2 hPa 85% 0.2mm
16/07:00pm ESE 8-11 kts 21.3°c 1018.0 hPa 86% 0.2mm
16/06:30pm ESE 9-13 kts 21.3°c 1017.8 hPa 83% 0.2mm
16/06:00pm ESE 11-14 kts 21.5°c 1017.4 hPa 83% 0.2mm
16/05:30pm E 11-14 kts 21.7°c 1017.1 hPa 81% 0.2mm
16/05:00pm ESE 10-14 kts 22.1°c 1017.0 hPa 80% 0.2mm
16/04:30pm E 11-14 kts 22.1°c 1016.8 hPa 81% 0.2mm
16/04:00pm E 13-17 kts 22.3°c 1016.7 hPa 77% 0.2mm
16/03:30pm E 13-17 kts 22.6°c 1016.5 hPa 77% 0.2mm
16/03:00pm E 13-18 kts 23.0°c 1016.6 hPa 75% 0.2mm
16/02:30pm E 13-18 kts 23.5°c 1016.8 hPa 73% 0.2mm
16/02:00pm ESE 15-20 kts 24.4°c 1016.9 hPa 71% 0.2mm
16/01:30pm E 13-18 kts 24.1°c 1017.2 hPa 74% 0.2mm
16/01:00pm E 13-17 kts 24.4°c 1017.5 hPa 72% 0.2mm
16/12:30pm E 15-18 kts 24.3°c 1017.7 hPa 70% 0.2mm
16/12:00pm E 14-18 kts 24.1°c 1018.0 hPa 72% 0.2mm
16/11:30am E 15-19 kts 23.6°c 1018.4 hPa 74% 0.2mm
16/11:00am E 15-20 kts 23.6°c 1018.6 hPa 72% 0.2mm
16/10:30am E 13-20 kts 24.0°c 1019.0 hPa 73% 0.2mm
16/10:00am E 15-19 kts 23.8°c 1019.1 hPa 74% 0.2mm
16/09:30am ESE 13-18 kts 23.5°c 1019.2 hPa 76% 0.0mm
16/09:00am ESE 12-19 kts 23.1°c 1019.2 hPa 79% 30.6mm
16/08:30am ESE 12-16 kts 22.6°c 1019.1 hPa 82% 30.6mm
16/08:00am ESE 13-17 kts 21.7°c 1018.9 hPa 83% 30.6mm
16/07:30am ESE 11-15 kts 21.6°c 1018.8 hPa 85% 30.6mm
16/07:00am ESE 12-17 kts 21.3°c 1018.4 hPa 86% 30.6mm
16/06:43am ESE 12-18 kts 21.0°c 1018.2 hPa 87% 30.6mm
16/06:30am ESE 11-16 kts 20.9°c 1018.1 hPa 89% 30.6mm
16/06:11am ESE 11-16 kts 20.7°c 1017.9 hPa 91% 30.6mm
16/06:00am ESE 12-15 kts 20.6°c 1017.9 hPa 90% 30.6mm
16/05:30am ESE 13-17 kts 20.2°c 1017.7 hPa 91% 30.6mm
16/05:23am ESE 12-17 kts 20.1°c 1017.6 hPa 93% 30.6mm
16/05:12am ESE 9-13 kts 19.8°c 1017.4 hPa 94% 30.6mm
16/05:01am ESE 11-16 kts 19.8°c 1017.3 hPa 94% 30.6mm
16/05:00am ESE 11-16 kts 19.8°c 1017.2 hPa 94% 30.6mm
16/04:53am ESE 14-20 kts 19.7°c 1017.2 hPa 93% 30.6mm
16/04:30am SE 15-22 kts 19.9°c 1016.9 hPa 94% 29.8mm
16/04:00am ESE 18-25 kts 20.1°c 1016.7 hPa 91% 28.8mm
16/03:57am ESE 18-23 kts 20.1°c 1016.6 hPa 90% 28.8mm
16/03:56am ESE 18-23 kts 20.1°c 1016.6 hPa 90% 28.8mm
16/03:36am ESE 15-23 kts 20.5°c 1016.6 hPa 88% 28.6mm
16/03:30am ESE 14-23 kts 20.5°c 1016.7 hPa 87% 28.6mm
16/03:00am SE 15-22 kts 20.4°c 1016.7 hPa 88% 28.6mm
16/02:32am SE 17-25 kts 20.3°c 1016.8 hPa 88% 28.6mm
16/02:30am SE 17-25 kts 20.3°c 1016.8 hPa 87% 28.6mm
16/02:00am SE 15-20 kts 20.1°c 1017.1 hPa 88% 28.6mm
16/01:30am SE 17-23 kts 20.1°c 1017.2 hPa 88% 28.6mm
16/01:00am ESE 16-22 kts 20.3°c 1017.6 hPa 85% 28.2mm
16/12:51am ESE 17-23 kts 20.3°c 1017.8 hPa 85% 28.2mm
16/12:31am ESE 17-28 kts 20.4°c 1018.2 hPa 85% 28.2mm
16/12:30am ESE 17-28 kts 20.4°c 1018.2 hPa 85% 28.2mm
16/12:26am SE 16-28 kts 20.3°c 1018.3 hPa 85% 28.2mm
16/12:00am SE 16-24 kts 20.0°c 1018.6 hPa 87% 28.2mm